Temp
-11 -11 -11 -12 -11 -12 -12 -12 -12 -11 -11 -10 -10 -10 -10 -10 -11 -11 -11 -11 -11 -11 -11 -10 -10 -10 -10 -10 -10 -10 -10 -10 -10 -11 -11 -11 -11 -11 -11 -11 -11 -12 -12 -12
-12 -12 -12 -11 -11 -12 -12 -12 -12 -11 -11 -11 -11 -10 -10 -11 -11 -11 -11 -11 -11 -11 -11 -10 -10 -10 -10 -10 -10 -10 -11 -11 -11 -11 -11 -11 -11 -11 -11 -12 -12 -12 -13 -13
-12 -12 -11 -12 -12 -12 -12 -12 -13 -12 -11 -11 -11 -11 -11 -11 -11 -11 -11 -11 -10 -10 -10 -11 -11 -11 -11 -10 -11 -11 -11 -11 -11 -11 -11 -12 -12 -12 -12 -12 -13 -13 -13 -14
-12 -11 -12 -12 -12 -12 -12 -12 -12 -12 -11 -13 -11 -12 -13 -11 -11 -11 -11 -11 -11 -10 -11 -11 -11 -11 -11 -11 -11 -11 -11 -11 -12 -12 -12 -12 -12 -13 -13 -13 -14 -14 -14 -15
-13 -12 -13 -13 -13 -12 -12 -12 -12 -12 -12 -12 -12 -12 -13 -11 -11 -11 -11 -11 -11 -11 -11 -11 -11 -11 -11 -11 -11 -12 -12 -12 -12 -12 -12 -13 -13 -13 -14 -14 -14 -14 -15 -15
-13 -12 -12 -12 -12 -12 -13 -13 -12 -12 -12 -12 -12 -12 -13 -12 -11 -11 -11 -11 -11 -11 -11 -11 -11 -11 -11 -11 -12 -12 -12 -12 -12 -13 -13 -13 -14 -14 -15 -15 -15 -15 -16 -16
-13 -13 -13 -13 -13 -13 -13 -13 -13 -12 -12 -12 -12 -12 -13 -12 -12 -11 -11 -11 -11 -11 -11 -11 -11 -11 -11 -12 -12 -12 -12 -13 -13 -13 -14 -14 -15 -16 -16 -16 -16 -16 -17 -17
-13 -13 -14 -13 -13 -13 -13 -14 -13 -13 -14 -14 -12 -12 -12 -13 -12 -12 -12 -12 -12 -12 -12 -12 -12 -12 -12 -12 -12 -13 -13 -13 -13 -14 -15 -16 -16 -16 -16 -17 -17 -17 -17 -17
-13 -14 -13 -14 -14 -14 -14 -13 -14 -13 -13 -13 -13 -13 -13 -13 -13 -13 -12 -12 -12 -12 -12 -12 -12 -12 -13 -13 -13 -13 -14 -14 -14 -15 -17 -17 -17 -17 -17 -17 -18 -18 -17 -18
-14 -14 -13 -14 -14 -14 -14 -14 -14 -14 -13 -13 -13 -13 -15 -12 -13 -13 -13 -13 -12 -12 -12 -13 -13 -13 -13 -13 -14 -14 -15 -15 -16 -17 -17 -17 -17 -17 -18 -18 -18 -18 -18 -18
-14 -14 -13 -14 -14 -14 -14 -14 -14 -14 -14 -13 -13 -14 -14 -12 -13 -13 -13 -13 -13 -13 -13 -13 -13 -13 -13 -14 -14 -14 -15 -16 -15 -17 -17 -17 -18 -18 -19 -18 -18 -18 -18 -17
-14 -14 -14 -14 -14 -14 -14 -14 -14 -14 -14 -14 -14 -13 -13 -13 -14 -14 -13 -12 -13 -12 -13 -13 -13 -14 -14 -15 -15 -14 -15 -16 -16 -17 -17 -17 -18 -18 -18 -18 -18 -18 -17 -16
-14 -14 -14 -14 -14 -14 -15 -15 -15 -14 -14 -13 -13 -13 -13 -13 -13 -13 -13 -13 -13 -13 -13 -13 -14 -13 -14 -14 -15 -15 -15 -16 -16 -17 -17 -18 -18 -18 -18 -18 -18 -17 -17 -17
-14 -14 -14 -14 -14 -14 -15 -15 -15 -15 -14 -14 -14 -14 -14 -13 -12 -13 -13 -13 -13 -13 -13 -13 -13 -13 -14 -14 -15 -15 -15 -16 -16 -17 -18 -18 -18 -18 -18 -18 -17 -17 -17 -17
-14 -14 -14 -14 -14 -14 -15 -15 -15 -15 -15 -14 -14 -14 -14 -14 -13 -13 -13 -13 -14 -13 -13 -13 -13 -14 -14 -14 -15 -15 -15 -16 -17 -18 -18 -18 -18 -18 -18 -17 -17 -17 -17 -17
-14 -14 -14 -14 -14 -14 -14 -15 -15 -15 -15 -14 -14 -14 -14 -14 -14 -14 -14 -14 -13 -13 -13 -13 -14 -14 -14 -14 -15 -15 -16 -17 -18 -18 -18 -18 -18 -18 -17 -17 -17 -17 -17 -18
-13 -13 -13 -14 -14 -14 -13 -15 -15 -15 -14 -15 -14 -14 -13 -14 -14 -13 -13 -13 -13 -13 -13 -13 -14 -14 -14 -15 -15 -16 -17 -18 -18 -18 -19 -18 -17 -17 -17 -17 -17 -17 -18 -18
-13 -13 -13 -13 -14 -13 -14 -15 -14 -14 -14 -14 -14 -13 -14 -13 -13 -13 -13 -13 -13 -13 -13 -14 -14 -14 -15 -15 -16 -17 -17 -18 -18 -18 -18 -17 -17 -17 -17 -17 -17 -18 -18 -18
-14 -13 -13 -13 -14 -14 -14 -14 -14 -13 -13 -13 -13 -13 -13 -13 -13 -13 -13 -13 -13 -13 -14 -14 -14 -14 -15 -15 -16 -16 -17 -18 -18 -17 -17 -17 -17 -17 -17 -17 -18 -18 -18 -18
-14 -14 -13 -13 -13 -14 -14 -14 -13 -13 -13 -13 -13 -13 -13 -13 -13 -14 -13 -13 -13 -13 -13 -14 -14 -14 -15 -16 -16 -17 -17 -17 -17 -17 -17 -17 -17 -17 -17 -17 -18 -18 -18 -18
-14 -14 -13 -14 -13 -13 -14 -14 -13 -13 -13 -13 -13 -13 -13 -13 -13 -13 -13 -13 -13 -13 -13 -14 -14 -15 -15 -16 -16 -17 -17 -17 -17 -17 -17 -17 -17 -17 -17 -17 -17 -18 -18 -18
-15 -15 -14 -14 -13 -13 -14 -14 -14 -13 -13 -13 -13 -13 -13 -13 -13 -13 -13 -13 -13 -13 -13 -14 -14 -15 -16 -16 -16 -16 -17 -17 -17 -17 -17 -17 -17 -17 -17 -17 -17 -18 -18 -18
-15 -15 -15 -14 -14 -14 -14 -14 -14 -14 -13 -13 -13 -13 -13 -13 -13 -13 -13 -13 -13 -13 -14 -14 -15 -15 -16 -16 -16 -17 -17 -17 -17 -17 -17 -17 -17 -17 -17 -17 -18 -18 -18 -19
-16 -15 -15 -15 -14 -14 -14 -14 -14 -14 -14 -13 -13 -13 -13 -13 -13 -13 -13 -14 -14 -14 -14 -14 -15 -15 -16 -16 -16 -16 -17 -17 -17 -17 -17 -18 -17 -17 -17 -18 -18 -18 -19 -19
-16 -15 -15 -15 -14 -14 -14 -14 -14 -14 -14 -13 -13 -13 -13 -13 -13 -13 -14 -14 -13 -14 -14 -14 -15 -15 -16 -16 -17 -17 -17 -17 -17 -17 -18 -18 -18 -18 -18 -18 -18 -19 -19 -20
-15 -16 -16 -15 -15 -15 -14 -14 -14 -14 -14 -13 -13 -13 -14 -13 -13 -14 -14 -13 -13 -14 -14 -14 -15 -16 -16 -17 -17 -17 -17 -17 -18 -18 -18 -18 -18 -18 -18 -19 -19 -19 -20 -22
Height
5856 5858 5859 5860 5862 5863 5865 5865 5865 5864 5864 5864 5864 5863 5862 5863 5864 5863 5863 5863 5862 5862 5861 5861 5860 5860 5859 5858 5856 5854 5853 5850 5848 5845 5841 5839 5836 5832 5829 5825 5821 5817 5812 5808
5852 5854 5854 5856 5858 5859 5861 5862 5862 5860 5860 5860 5860 5860 5859 5859 5859 5861 5861 5861 5860 5860 5859 5858 5857 5857 5856 5853 5852 5850 5847 5845 5842 5839 5836 5833 5830 5826 5823 5819 5814 5810 5804 5799
5847 5846 5849 5852 5854 5855 5856 5857 5857 5857 5857 5856 5856 5857 5856 5856 5856 5857 5857 5857 5857 5857 5856 5856 5855 5853 5851 5849 5847 5844 5841 5838 5835 5832 5829 5827 5823 5819 5815 5810 5806 5800 5796 5791
5842 5842 5846 5847 5849 5851 5851 5851 5852 5852 5854 5854 5853 5854 5852 5853 5853 5853 5853 5854 5853 5853 5853 5852 5850 5848 5846 5844 5841 5838 5834 5831 5828 5826 5822 5819 5815 5810 5806 5801 5796 5792 5787 5782
5837 5839 5841 5843 5843 5845 5845 5848 5848 5848 5849 5849 5850 5850 5852 5848 5849 5848 5849 5849 5849 5848 5847 5846 5844 5843 5841 5837 5834 5831 5828 5826 5823 5819 5815 5809 5804 5799 5795 5791 5786 5782 5777 5772
5833 5836 5836 5837 5839 5840 5843 5843 5844 5844 5844 5846 5847 5848 5852 5841 5844 5845 5845 5845 5844 5844 5843 5841 5840 5837 5834 5832 5828 5826 5823 5820 5816 5812 5807 5800 5794 5789 5784 5780 5776 5771 5766 5761
5829 5831 5832 5833 5834 5836 5838 5840 5840 5841 5840 5842 5842 5843 5842 5837 5839 5839 5839 5839 5839 5839 5837 5835 5833 5831 5828 5826 5822 5819 5816 5812 5807 5803 5799 5793 5786 5780 5774 5769 5765 5760 5754 5749
5825 5826 5827 5829 5830 5831 5833 5834 5835 5837 5838 5839 5837 5837 5833 5835 5834 5833 5833 5834 5834 5833 5832 5830 5827 5825 5822 5820 5817 5813 5808 5803 5799 5794 5790 5785 5779 5772 5765 5760 5754 5749 5743 5737
5820 5821 5821 5824 5826 5827 5826 5828 5830 5830 5831 5832 5834 5833 5831 5830 5830 5829 5828 5828 5827 5827 5825 5823 5821 5818 5814 5811 5809 5805 5800 5794 5790 5786 5781 5774 5769 5762 5757 5751 5746 5740 5735 5727
5814 5815 5818 5820 5821 5822 5821 5824 5825 5824 5825 5826 5829 5828 5827 5824 5824 5823 5822 5822 5822 5821 5819 5817 5814 5811 5807 5803 5799 5797 5791 5784 5778 5777 5771 5765 5760 5754 5749 5743 5738 5731 5726 5719
5809 5812 5813 5815 5816 5817 5818 5818 5819 5819 5819 5820 5823 5824 5820 5818 5818 5816 5816 5816 5816 5814 5812 5810 5807 5803 5799 5795 5790 5786 5782 5773 5769 5768 5761 5757 5751 5746 5740 5735 5729 5723 5717 5710
5804 5805 5806 5809 5810 5811 5811 5813 5813 5811 5815 5814 5814 5818 5815 5811 5810 5809 5810 5811 5808 5807 5805 5802 5799 5796 5792 5787 5782 5776 5772 5765 5761 5757 5751 5746 5742 5737 5732 5727 5721 5714 5708 5701
5799 5800 5802 5803 5806 5806 5806 5807 5806 5806 5806 5808 5808 5812 5808 5806 5803 5804 5805 5803 5802 5799 5797 5794 5791 5787 5782 5778 5773 5768 5763 5757 5752 5747 5743 5738 5734 5729 5723 5718 5712 5706 5699 5692
5792 5794 5797 5799 5795 5799 5799 5796 5797 5798 5799 5803 5802 5803 5801 5796 5795 5799 5798 5796 5793 5791 5789 5785 5781 5777 5773 5769 5765 5759 5754 5749 5744 5740 5735 5731 5727 5721 5716 5710 5704 5697 5689 5680
5786 5790 5791 5791 5791 5790 5789 5788 5789 5791 5793 5793 5798 5796 5795 5788 5791 5790 5790 5788 5786 5783 5779 5776 5773 5769 5765 5760 5755 5750 5745 5740 5736 5732 5728 5724 5719 5713 5708 5702 5695 5687 5677 5666
5780 5782 5785 5785 5785 5784 5782 5782 5783 5784 5785 5786 5788 5788 5785 5787 5786 5783 5781 5780 5777 5775 5772 5769 5766 5761 5756 5751 5747 5742 5737 5732 5728 5725 5721 5716 5711 5705 5700 5693 5685 5675 5663 5652
5773 5775 5779 5780 5780 5778 5779 5779 5778 5779 5779 5780 5780 5780 5779 5779 5778 5776 5775 5773 5772 5769 5766 5762 5758 5753 5749 5743 5738 5733 5729 5724 5721 5717 5712 5708 5703 5698 5691 5683 5673 5661 5649 5636
5767 5770 5772 5775 5776 5774 5775 5775 5774 5775 5774 5775 5775 5774 5774 5773 5773 5772 5771 5769 5766 5763 5760 5755 5751 5745 5740 5735 5729 5725 5720 5717 5713 5709 5705 5701 5696 5689 5681 5671 5660 5648 5634 5620
5761 5763 5767 5768 5771 5773 5771 5772 5771 5771 5772 5771 5770 5769 5769 5769 5768 5767 5765 5763 5760 5756 5753 5748 5743 5738 5732 5727 5722 5717 5713 5710 5706 5703 5699 5694 5687 5679 5669 5659 5647 5634 5620 5604
5755 5758 5761 5764 5766 5767 5767 5767 5768 5767 5767 5766 5766 5765 5765 5765 5764 5763 5760 5757 5754 5750 5746 5741 5736 5731 5725 5720 5716 5711 5708 5704 5701 5697 5692 5685 5678 5669 5659 5647 5634 5620 5604 5586
5749 5752 5755 5758 5759 5764 5764 5764 5764 5764 5767 5763 5763 5762 5762 5761 5759 5757 5755 5752 5748 5744 5739 5735 5729 5724 5719 5714 5710 5706 5702 5699 5695 5690 5684 5677 5668 5658 5647 5635 5620 5605 5588 5569
5742 5746 5750 5751 5754 5761 5760 5760 5760 5760 5759 5759 5759 5758 5757 5756 5754 5752 5750 5746 5742 5738 5734 5729 5723 5717 5712 5708 5705 5701 5697 5693 5689 5683 5675 5667 5657 5647 5635 5621 5605 5589 5571 5552
5734 5738 5743 5748 5750 5752 5755 5756 5755 5755 5755 5755 5755 5754 5753 5751 5749 5747 5744 5741 5737 5733 5728 5722 5717 5711 5707 5703 5699 5695 5691 5686 5681 5674 5666 5657 5647 5635 5622 5607 5592 5575 5556 5535
5726 5730 5736 5741 5742 5745 5749 5751 5750 5751 5751 5750 5750 5749 5748 5747 5745 5742 5740 5736 5731 5727 5722 5716 5710 5705 5701 5697 5693 5689 5684 5679 5672 5665 5656 5647 5636 5623 5609 5593 5577 5560 5541 5520
5717 5723 5728 5734 5736 5739 5742 5744 5745 5746 5746 5746 5745 5744 5743 5742 5740 5737 5734 5730 5725 5721 5715 5710 5704 5699 5695 5690 5686 5682 5677 5671 5664 5656 5647 5637 5625 5611 5596 5579 5564 5543 5526 5506
5707 5716 5721 5728 5729 5731 5735 5738 5740 5741 5741 5741 5740 5739 5738 5736 5734 5731 5727 5723 5719 5714 5709 5704 5698 5693 5689 5684 5679 5675 5669 5663 5655 5647 5637 5626 5613 5599 5583 5566 5548 5534 5512 5490
Wind_Speed
22 21 18 17 15 17 14 13 16 16 15 14 14 13 14 14 14 14 13 12 13 12 11 10 12 15 17 18 20 22 23 24 26 28 30 31 33 34 36 37 38 38 40 43
20 20 22 21 20 17 16 17 16 18 16 15 15 14 15 16 17 14 14 15 16 14 15 15 16 16 18 20 21 24 27 28 30 31 32 33 34 36 38 39 40 42 44 45
24 24 20 22 21 19 18 18 18 18 17 15 14 13 15 19 19 16 17 18 17 17 18 18 19 20 22 24 26 29 30 32 33 34 35 36 37 40 43 43 44 45 46 47
25 24 21 22 22 22 19 21 20 19 16 10 11 7 14 20 21 19 20 19 18 19 20 21 23 24 26 27 31 32 33 33 35 38 40 40 43 46 47 47 49 48 48 48
25 21 22 23 24 23 25 19 20 19 18 18 16 15 14 21 23 22 20 20 22 22 22 25 26 27 28 31 33 33 34 36 39 41 44 46 49 51 52 52 53 51 52 51
25 22 23 26 22 25 21 20 20 19 19 17 16 16 8 24 22 21 22 23 24 25 26 26 27 29 31 33 35 36 37 39 42 44 48 52 54 55 55 55 56 57 57 51
24 23 20 23 27 23 25 22 21 19 19 17 17 18 22 25 21 23 24 25 26 27 28 30 31 32 33 34 35 38 40 42 45 47 50 52 53 56 59 59 56 58 55 55
28 28 25 22 24 28 27 26 25 21 12 12 16 17 28 24 25 27 28 28 27 28 30 32 32 32 34 37 37 41 44 47 49 50 50 50 54 56 57 59 60 58 59 51
29 31 29 27 24 26 29 28 27 26 25 26 22 20 22 24 24 25 26 27 29 29 30 31 32 35 36 40 41 44 46 49 51 49 52 50 54 54 55 58 58 52 57 55
29 31 27 24 26 27 30 28 30 31 29 27 22 24 19 25 26 28 29 29 29 31 31 33 35 37 40 43 43 41 44 51 55 48 48 48 50 54 55 57 54 55 56 54
29 29 29 27 27 29 27 29 30 32 32 31 27 22 28 29 28 31 30 30 31 31 33 35 36 39 41 42 45 50 52 50 47 40 48 51 52 53 50 53 52 53 53 54
29 30 31 30 26 28 31 34 31 33 30 31 31 27 30 34 34 33 30 28 30 32 34 36 36 41 44 48 51 47 45 47 46 47 48 45 47 50 48 50 50 53 50 47
27 31 33 31 30 31 33 32 35 35 33 33 32 28 30 32 34 33 30 29 33 35 34 36 45 48 43 41 39 39 41 43 45 44 43 44 44 45 45 48 50 46 47 52
26 29 29 30 35 30 31 35 34 36 34 30 31 28 30 36 35 29 32 35 35 35 39 43 36 37 36 37 39 41 42 43 42 40 39 40 42 44 47 47 43 47 52 58
27 28 32 32 32 30 32 27 29 32 34 36 30 31 32 39 37 36 36 35 40 42 33 34 32 34 36 37 37 37 38 37 36 36 37 39 42 44 43 41 46 52 58 64
27 28 28 29 26 25 23 21 22 27 30 27 26 29 35 32 36 41 40 38 30 30 27 30 34 36 35 35 37 37 36 35 35 35 36 39 40 39 39 46 52 59 65 70
28 26 25 27 24 22 17 18 22 22 22 25 28 30 24 30 24 24 24 25 23 25 29 32 34 35 35 36 37 35 33 33 33 34 36 37 35 38 45 52 58 65 70 74
30 27 26 25 26 20 15 13 15 15 15 15 17 18 18 18 17 17 18 20 24 27 30 32 33 35 36 36 35 34 32 31 31 33 32 31 37 44 51 57 64 69 74 77
33 29 24 26 25 20 12 13 14 13 13 13 13 13 13 13 15 16 19 21 25 27 30 33 36 37 38 37 36 33 30 29 29 27 30 36 43 50 56 63 67 72 76 82
34 30 27 24 24 23 17 16 14 14 13 12 10 11 12 14 16 17 20 23 25 28 31 34 37 39 39 36 34 30 27 26 25 29 35 42 48 55 61 67 70 75 81 84
34 31 29 24 27 23 19 16 16 14 11 12 12 12 13 14 17 18 21 23 25 30 32 35 37 38 36 33 31 27 25 25 29 34 41 47 53 59 66 70 74 80 84 90
38 33 33 29 27 22 21 18 17 15 13 13 14 14 14 15 17 20 22 23 27 31 34 36 37 35 33 31 28 26 25 29 34 40 46 52 58 64 69 74 79 84 87 93
43 39 34 30 24 24 25 21 18 16 14 14 16 16 15 16 18 20 22 24 28 32 34 36 35 32 30 28 28 26 29 34 38 44 50 56 61 67 72 77 81 85 90 95
44 42 36 32 29 25 26 23 21 16 15 16 17 16 16 18 20 21 23 25 29 32 35 36 34 31 29 30 28 29 33 38 42 48 54 60 65 70 75 79 83 87 92 94
44 43 38 33 31 27 26 26 23 18 16 17 17 16 18 19 20 21 23 26 31 32 36 37 36 32 31 32 30 32 36 41 46 51 57 63 68 73 77 81 85 89 92 94
49 41 38 32 33 31 28 27 25 21 19 19 17 17 18 19 19 21 24 28 31 34 38 39 37 33 33 33 32 35 39 44 49 55 60 65 70 74 78 82 86 89 90 89
Wind_Direction
238 240 244 240 239 232 252 263 264 266 271 272 281 276 258 244 249 239 236 242 249 255 266 274 279 285 287 293 297 296 298 299 303 305 306 307 308 308 308 308 308 308 306 307
238 240 241 239 241 244 255 263 269 272 271 273 278 278 257 236 242 249 251 253 256 265 271 278 280 284 286 289 293 294 296 300 303 304 304 306 305 304 304 304 304 306 306 307
237 235 234 239 241 241 248 252 255 266 272 275 275 277 257 242 244 244 250 255 265 268 273 278 282 286 288 292 294 294 297 302 304 304 303 303 303 303 304 304 304 306 308 310
241 244 241 242 245 242 247 248 250 257 266 281 261 221 280 242 250 251 254 264 263 266 270 272 275 278 285 291 291 296 301 303 304 304 304 304 303 302 303 303 306 309 312 312
243 243 242 242 245 245 248 254 251 251 255 262 265 258 263 255 245 255 260 261 264 263 264 268 274 283 288 289 291 296 299 301 303 304 303 302 303 303 305 307 308 310 314 311
240 246 243 237 245 247 247 252 256 254 259 264 260 268 249 260 251 253 261 266 265 267 271 275 279 284 286 289 293 298 301 303 303 301 302 303 304 307 308 309 308 311 312 310
238 239 247 246 241 248 251 251 254 255 262 265 261 256 226 253 256 257 260 263 266 270 274 279 282 286 288 291 295 298 300 299 299 300 301 303 307 307 307 307 308 313 311 309
241 245 242 243 249 244 246 244 251 255 254 262 256 259 257 260 257 260 262 265 267 271 275 279 283 287 291 294 295 297 298 298 297 298 302 300 303 303 304 307 310 311 310 310
243 242 248 238 249 247 245 247 248 255 252 257 265 266 264 265 260 258 260 267 273 276 278 281 285 290 292 294 296 297 298 298 300 299 300 302 301 301 303 305 307 311 311 311
243 246 243 238 244 250 251 251 251 252 256 258 262 262 267 260 264 266 264 266 270 274 281 286 289 291 293 295 296 298 299 296 296 299 299 298 299 301 302 305 308 309 311 312
238 239 242 248 251 252 255 258 256 256 252 257 258 255 270 268 268 270 272 275 277 283 286 288 292 296 298 297 297 297 297 293 300 296 294 297 296 300 304 304 307 309 310 312
238 237 244 246 257 252 255 256 263 260 261 257 261 259 265 271 276 277 279 281 283 285 289 294 297 301 298 294 295 297 297 297 298 293 294 299 298 300 301 305 308 310 312 312
243 245 246 254 254 254 259 261 260 264 262 263 264 272 271 272 271 275 283 282 289 290 291 294 295 294 293 294 293 293 293 293 294 293 293 295 297 302 305 306 309 310 311 312
244 248 252 255 265 272 270 269 255 254 258 266 268 271 276 274 271 287 283 287 292 293 290 293 294 294 293 293 293 294 294 293 291 291 292 296 300 302 305 308 308 311 312 314
247 252 256 263 268 276 278 267 256 255 258 262 267 270 269 272 288 284 286 285 287 292 293 293 295 295 296 296 296 296 295 292 290 291 295 297 301 304 306 306 311 314 316 316
249 255 261 264 266 275 270 269 268 261 260 262 263 266 270 277 280 279 279 287 288 290 291 295 298 299 300 300 300 299 297 293 292 293 299 301 302 304 307 311 315 317 318 318
244 255 262 270 269 274 276 267 266 270 267 264 267 269 277 276 278 283 283 284 288 294 298 300 303 304 303 303 303 300 296 293 294 298 301 302 303 308 313 316 319 320 319 318
241 249 258 269 267 267 268 256 264 271 273 271 271 273 273 275 277 280 284 291 297 301 304 306 306 307 308 307 305 303 300 300 301 302 303 305 310 314 317 320 321 321 320 319
241 245 257 262 261 262 264 246 259 270 277 275 270 273 272 277 285 291 293 299 303 306 310 314 316 316 313 310 308 305 304 302 303 303 307 311 316 319 322 322 323 322 321 321
242 246 251 259 260 257 244 251 258 271 280 275 276 274 284 286 286 288 302 304 307 317 321 321 319 317 314 310 307 305 304 302 303 308 313 318 321 323 324 325 324 323 324 323
242 247 252 253 257 255 243 244 259 268 274 270 274 279 281 282 295 300 303 309 320 323 323 321 319 317 313 310 307 305 303 303 308 312 318 321 323 324 325 326 326 326 326 325
240 243 248 247 253 255 243 242 253 260 267 267 274 282 282 290 296 302 308 317 322 322 321 321 320 317 313 309 305 303 303 307 311 316 319 322 324 325 327 328 328 327 327 328
240 241 246 251 248 243 236 244 250 259 266 268 280 282 286 294 299 306 313 318 321 323 324 323 321 317 313 307 304 301 306 311 314 317 320 323 325 328 329 329 328 329 330 330
235 236 241 242 243 237 236 241 247 253 263 270 281 282 290 296 302 312 314 316 322 325 326 325 321 316 309 307 302 304 309 313 316 318 321 324 328 330 330 330 330 331 332 332
233 233 235 239 239 234 234 241 245 249 258 268 277 280 290 296 306 313 313 319 326 327 327 326 322 314 309 307 302 304 310 315 317 320 323 327 330 331 331 331 332 333 333 333
230 228 230 233 235 231 232 244 247 247 257 266 276 280 288 298 310 315 318 325 327 327 328 325 320 312 309 307 303 306 312 317 320 322 327 330 331 333 333 333 333 334 335 334